{"data":{"norad_id":62320,"epoch":"2026-05-25T03:31:18.532992Z","epoch_age_seconds":58714,"freshness":"FRESH","line1":"1 62320U 24239V   26145.14674228  .00011510  00000+0  40006-3 0  9995","line2":"2 62320  53.1583 185.7321 0001268  97.1007 263.0138 15.30205861 81270","mean_motion":15.30205861,"eccentricity":0.0001268,"inclination_deg":53.1583,"raan_deg":185.7321,"arg_perigee_deg":97.1007,"mean_anomaly_deg":263.0138,"bstar":0.00040006,"rev_number":8127,"period_min":94.10498526381,"perigee_km":474.32856676221,"apogee_km":476.06657240906,"semimajor_km":6853.3345695856,"source":"CELESTRAK","updated_at":"2026-05-25T13:38:19.651253Z"}}